TimeCDT,TemperatureF,Dew PointF,Humidity,Sea Level PressureIn,VisibilityMPH,Wind Direction,Wind SpeedMPH,Gust SpeedMPH,PrecipitationIn,Events,Conditions,WindDirDegrees,DateUTC
12:15 AM,32.0,32.0,100,29.79,3.0,North,23.0,28.8,N/A,,Overcast,350,2013-03-10 06:15:00
12:35 AM,32.0,32.0,100,29.79,4.0,North,25.3,-,N/A,,Overcast,360,2013-03-10 06:35:00
12:55 AM,32.0,32.0,100,29.78,2.5,North,24.2,-,N/A,,Overcast,350,2013-03-10 06:55:00
1:15 AM,30.2,30.2,100,29.78,3.0,North,25.3,-,N/A,,Overcast,360,2013-03-10 07:15:00
1:35 AM,30.2,30.2,100,29.78,3.0,North,27.6,33.4,N/A,,Overcast,360,2013-03-10 07:35:00
1:55 AM,30.2,30.2,100,29.79,3.0,North,28.8,-,N/A,,Overcast,360,2013-03-10 07:55:00
3:15 AM,30.2,30.2,100,29.79,4.0,North,25.3,34.5,N/A,,Overcast,360,2013-03-10 08:15:00
3:35 AM,30.2,30.2,100,29.79,5.0,North,26.5,-,N/A,,Overcast,360,2013-03-10 08:35:00
3:55 AM,30.2,30.2,100,29.79,4.0,North,28.8,-,N/A,,Overcast,360,2013-03-10 08:55:00
4:15 AM,30.2,30.2,100,29.80,2.5,North,25.3,32.2,N/A,,Overcast,350,2013-03-10 09:15:00
4:35 AM,30.2,30.2,100,29.82,-9999.0,North,24.2,40.3,N/A,,Overcast,350,2013-03-10 09:35:00
4:55 AM,-9999,-9999,N/A,29.80,1.2,North,29.9,36.8,N/A,,Overcast,360,2013-03-10 09:55:00
5:15 AM,28.4,28.4,100,29.82,1.0,North,25.3,33.4,N/A,Snow,Light Snow,360,2013-03-10 10:15:00
5:35 AM,28.4,28.4,100,29.83,0.5,North,25.3,38.0,N/A,Snow,Light Snow,360,2013-03-10 10:35:00
5:55 AM,28.4,28.4,100,29.84,0.8,North,31.1,-,N/A,Snow,Light Snow,360,2013-03-10 10:55:00
6:15 AM,28.4,28.4,100,29.84,1.0,North,32.2,-,N/A,Snow,Light Snow,360,2013-03-10 11:15:00
7:35 AM,26.6,26.6,100,29.90,1.8,North,26.5,35.7,N/A,Snow,Light Snow,350,2013-03-10 12:35:00
7:55 AM,26.6,26.6,100,29.90,2.0,North,28.8,35.7,N/A,Snow,Light Snow,350,2013-03-10 12:55:00
8:15 AM,26.6,26.6,100,29.92,2.5,North,25.3,33.4,N/A,Snow,Light Snow,350,2013-03-10 13:15:00
8:35 AM,26.6,26.6,100,29.90,2.5,North,27.6,-,N/A,Snow,Light Snow,350,2013-03-10 13:35:00
8:55 AM,26.6,26.6,100,29.90,1.0,North,28.8,34.5,N/A,Snow,Light Snow,350,2013-03-10 13:55:00
9:15 AM,26.6,24.8,93,29.92,0.8,North,31.1,-,N/A,Snow,Light Snow,350,2013-03-10 14:15:00
9:35 AM,24.8,24.8,100,29.92,1.0,North,26.5,33.4,N/A,Snow,Light Snow,350,2013-03-10 14:35:00
9:55 AM,24.8,24.8,100,29.90,0.8,North,32.2,40.3,N/A,Snow,Light Snow,360,2013-03-10 14:55:00
10:15 AM,26.6,24.8,93,29.91,0.2,North,32.2,40.3,N/A,Snow,Light Snow,350,2013-03-10 15:15:00
10:35 AM,26.6,26.6,100,29.91,0.8,North,29.9,38.0,N/A,Snow,Light Snow,360,2013-03-10 15:35:00
10:55 AM,26.6,24.8,93,29.90,0.5,North,35.7,41.4,N/A,Rain,Freezing Rain,360,2013-03-10 15:55:00
11:15 AM,26.6,24.8,93,29.92,0.5,North,29.9,38.0,N/A,Rain,Freezing Rain,350,2013-03-10 16:15:00
11:35 AM,26.6,24.8,93,29.92,0.5,North,28.8,36.8,N/A,Rain,Freezing Rain,360,2013-03-10 16:35:00
11:55 AM,26.6,26.6,100,29.92,0.2,North,31.1,42.6,N/A,Rain,Freezing Rain,350,2013-03-10 16:55:00
12:15 PM,26.6,26.6,100,29.91,0.2,North,34.5,44.9,N/A,Snow,Light Snow,350,2013-03-10 17:15:00
12:35 PM,26.6,26.6,100,29.88,0.5,North,34.5,41.4,N/A,Snow,Light Snow,360,2013-03-10 17:35:00
12:55 PM,26.6,24.8,93,29.91,0.8,North,32.2,40.3,N/A,Snow,Light Snow,360,2013-03-10 17:55:00
1:15 PM,26.6,24.8,93,29.91,1.0,North,31.1,36.8,N/A,Snow,Light Snow,350,2013-03-10 18:15:00
1:35 PM,26.6,24.8,93,29.89,1.0,North,28.8,39.1,N/A,Snow,Light Snow,350,2013-03-10 18:35:00
1:55 PM,26.6,24.8,93,29.90,1.0,North,28.8,38.0,N/A,Snow,Light Snow,360,2013-03-10 18:55:00
2:15 PM,26.6,26.6,100,29.89,1.0,North,29.9,36.8,N/A,Snow,Light Snow,360,2013-03-10 19:15:00
2:35 PM,26.6,26.6,100,29.89,0.8,North,27.6,38.0,N/A,Snow,Light Snow,360,2013-03-10 19:35:00
2:55 PM,26.6,24.8,93,29.89,1.2,North,26.5,34.5,N/A,Snow,Light Snow,360,2013-03-10 19:55:00
3:15 PM,26.6,26.6,100,29.88,1.2,North,26.5,34.5,N/A,Snow,Light Snow,350,2013-03-10 20:15:00
3:35 PM,26.6,24.8,93,29.88,0.8,North,26.5,36.8,N/A,,Overcast,360,2013-03-10 20:35:00
3:55 PM,26.6,24.8,93,29.90,2.5,North,28.8,-,N/A,,Overcast,360,2013-03-10 20:55:00
4:15 PM,26.6,24.8,93,29.91,4.0,North,27.6,35.7,N/A,,Overcast,360,2013-03-10 21:15:00
4:35 PM,26.6,24.8,93,29.91,4.0,North,27.6,34.5,N/A,,Overcast,360,2013-03-10 21:35:00
4:55 PM,24.8,24.8,100,29.89,2.0,North,27.6,39.1,N/A,,Freezing Rain,360,2013-03-10 21:55:00
5:15 PM,24.8,24.8,100,29.88,0.8,North,31.1,36.8,N/A,Rain,Freezing Rain,360,2013-03-10 22:15:00
5:35 PM,24.8,24.8,100,29.88,0.2,North,28.8,36.8,N/A,Rain,Freezing Rain,360,2013-03-10 22:35:00
5:55 PM,24.8,24.8,100,29.88,0.2,North,29.9,36.8,N/A,Rain,Freezing Rain,360,2013-03-10 22:55:00
6:15 PM,24.8,24.8,100,29.89,0.2,North,31.1,38.0,N/A,Rain,Freezing Rain,360,2013-03-10 23:15:00
6:35 PM,24.8,24.8,100,29.89,0.2,North,33.4,39.1,N/A,Rain,Freezing Rain,360,2013-03-10 23:35:00
6:55 PM,24.8,24.8,100,29.91,0.5,North,26.5,35.7,N/A,Rain,Freezing Rain,360,2013-03-10 23:55:00
7:15 PM,24.8,23.0,93,29.91,0.2,North,27.6,34.5,N/A,Rain,Freezing Rain,350,2013-03-11 00:15:00
7:35 PM,24.8,23.0,93,29.92,0.2,North,25.3,34.5,N/A,Rain,Freezing Rain,350,2013-03-11 00:35:00
7:55 PM,24.8,23.0,93,29.92,0.5,North,21.9,34.5,N/A,Rain,Freezing Rain,360,2013-03-11 00:55:00
8:15 PM,24.8,23.0,93,29.92,0.8,North,21.9,29.9,N/A,Rain,Freezing Rain,360,2013-03-11 01:15:00
8:35 PM,23.0,23.0,100,29.92,0.5,North,26.5,32.2,N/A,Rain,Freezing Rain,360,2013-03-11 01:35:00
9:15 PM,23.0,23.0,100,29.91,1.0,North,25.3,34.5,N/A,Rain,Freezing Rain,350,2013-03-11 02:15:00
9:35 PM,23.0,21.2,93,29.91,1.2,NNW,28.8,-,N/A,Rain,Freezing Rain,340,2013-03-11 02:35:00
9:55 PM,23.0,21.2,93,29.91,2.0,North,29.9,-,N/A,Rain,Freezing Rain,350,2013-03-11 02:55:00
10:15 PM,23.0,21.2,93,29.92,2.5,North,25.3,32.2,N/A,,Freezing Rain,350,2013-03-11 03:15:00
10:35 PM,23.0,21.2,93,29.92,4.0,NNW,20.7,31.1,N/A,,Freezing Rain,340,2013-03-11 03:35:00
10:55 PM,23.0,21.2,93,29.91,6.0,North,25.3,32.2,N/A,,Freezing Rain,350,2013-03-11 03:55:00
11:15 PM,23.0,21.2,93,29.91,8.0,North,23.0,28.8,N/A,,Freezing Rain,350,2013-03-11 04:15:00
11:35 PM,23.0,21.2,93,29.91,10.0,NNW,20.7,28.8,N/A,,Freezing Rain,340,2013-03-11 04:35:00
12:35 AM,23.0,21.2,93,29.90,10.0,North,20.7,-,N/A,,Freezing Rain,350,2013-03-11 05:35:00
12:55 AM,23.0,19.4,86,29.90,10.0,North,19.6,25.3,N/A,,Freezing Rain,350,2013-03-11 05:55:00